QPF
0.04 0.04 0.06 0.07 0.06 0.07 0.07 0.06 0.03 0.03 0.04 0.04 0.04 0.04 0.04 0.04 0.04 0.03 0.03 0.04 0.05 0.04 0.04 0.04 0.03 0.03 0.05 0.06 0.05 0.04 0.04 0.04 0.06 0.06 0.07 0.11 0.10 0.12 0.07 0.03 0.02 0.02 0.02
0.06 0.08 0.07 0.07 0.07 0.05 0.04 0.06 0.05 0.04 0.04 0.04 0.04 0.04 0.03 0.04 0.03 0.02 0.02 0.03 0.05 0.04 0.04 0.04 0.04 0.04 0.06 0.06 0.06 0.05 0.06 0.08 0.09 0.10 0.09 0.08 0.06 0.08 0.07 0.04 0.02 0.02 0.01
0.05 0.08 0.08 0.07 0.08 0.06 0.04 0.05 0.06 0.05 0.03 0.03 0.03 0.03 0.03 0.04 0.03 0.02 0.02 0.03 0.03 0.03 0.03 0.04 0.04 0.04 0.04 0.04 0.05 0.05 0.05 0.06 0.07 0.11 0.11 0.06 0.04 0.05 0.04 0.03 0.02 0.01 0.01
0.04 0.06 0.07 0.06 0.07 0.08 0.08 0.07 0.05 0.04 0.04 0.03 0.03 0.04 0.05 0.04 0.03 0.02 0.03 0.03 0.03 0.02 0.03 0.04 0.04 0.03 0.03 0.04 0.06 0.06 0.06 0.07 0.07 0.07 0.09 0.06 0.04 0.04 0.03 0.02 0.01 0.01 0.01
0.04 0.05 0.06 0.07 0.07 0.08 0.09 0.07 0.05 0.04 0.03 0.02 0.03 0.05 0.05 0.04 0.03 0.04 0.05 0.04 0.03 0.02 0.02 0.02 0.03 0.03 0.04 0.05 0.07 0.10 0.09 0.08 0.07 0.05 0.04 0.05 0.06 0.06 0.04 0.02 0.01 0.01 0.02
0.04 0.04 0.05 0.09 0.09 0.08 0.07 0.07 0.06 0.05 0.03 0.02 0.04 0.05 0.05 0.05 0.05 0.06 0.06 0.08 0.05 0.02 0.02 0.02 0.03 0.04 0.04 0.06 0.07 0.09 0.08 0.07 0.06 0.05 0.04 0.04 0.04 0.03 0.02 0.01 0.02 0.01 0.02
0.02 0.02 0.04 0.06 0.07 0.07 0.07 0.06 0.06 0.05 0.04 0.04 0.05 0.04 0.05 0.05 0.05 0.07 0.05 0.06 0.04 0.02 0.02 0.03 0.04 0.03 0.02 0.03 0.04 0.07 0.07 0.07 0.06 0.06 0.04 0.03 0.02 0.02 0.02 0.02 0.02 0.02 0.02
0.01 0.02 0.03 0.05 0.06 0.06 0.06 0.04 0.04 0.04 0.04 0.06 0.05 0.05 0.05 0.04 0.03 0.03 0.02 0.02 0.02 0.02 0.02 0.03 0.03 0.02 0.03 0.02 0.02 0.05 0.06 0.06 0.07 0.07 0.05 0.04 0.03 0.03 0.03 0.04 0.03 0.02 0.02
0.01 0.01 0.03 0.05 0.04 0.05 0.05 0.04 0.03 0.03 0.04 0.06 0.06 0.05 0.04 0.03 0.01 0.01 0.02 0.02 0.02 0.02 0.02 0.03 0.02 0.02 0.02 0.03 0.03 0.03 0.05 0.05 0.07 0.07 0.05 0.04 0.03 0.02 0.03 0.03 0.03 0.03 0.03
0.01 0.02 0.04 0.07 0.07 0.05 0.04 0.04 0.04 0.04 0.05 0.06 0.07 0.07 0.05 0.03 0.02 0.01 0.02 0.02 0.03 0.03 0.03 0.03 0.02 0.03 0.03 0.03 0.05 0.04 0.04 0.04 0.05 0.05 0.05 0.04 0.03 0.02 0.02 0.02 0.02 0.02 0.03
0.03 0.03 0.04 0.06 0.07 0.06 0.04 0.04 0.05 0.05 0.04 0.06 0.07 0.08 0.07 0.05 0.04 0.02 0.02 0.01 0.02 0.03 0.03 0.03 0.02 0.03 0.03 0.03 0.05 0.04 0.04 0.03 0.03 0.05 0.06 0.05 0.05 0.04 0.04 0.03 0.03 0.03 0.03
0.06 0.05 0.05 0.07 0.06 0.04 0.04 0.04 0.05 0.04 0.03 0.04 0.06 0.07 0.07 0.05 0.04 0.04 0.03 0.02 0.02 0.01 0.03 0.04 0.03 0.03 0.03 0.03 0.06 0.08 0.05 0.03 0.03 0.06 0.09 0.08 0.07 0.06 0.06 0.04 0.03 0.02 0.03
0.03 0.02 0.04 0.08 0.06 0.03 0.03 0.03 0.03 0.03 0.02 0.03 0.03 0.06 0.07 0.05 0.04 0.05 0.04 0.03 0.03 0.02 0.02 0.02 0.02 0.02 0.02 0.02 0.04 0.09 0.07 0.05 0.04 0.06 0.07 0.06 0.05 0.04 0.03 0.02 0.02 0.02 0.01
0.03 0.03 0.04 0.06 0.06 0.04 0.03 0.04 0.04 0.03 0.03 0.03 0.03 0.04 0.04 0.04 0.04 0.04 0.03 0.05 0.05 0.03 0.03 0.02 0.01 0.01 0.01 0.02 0.03 0.04 0.04 0.02 0.03 0.04 0.04 0.03 0.03 0.02 0.01 0.01 0.01 0.01 0.01
0.03 0.04 0.05 0.06 0.06 0.04 0.04 0.04 0.04 0.04 0.04 0.02 0.03 0.03 0.03 0.03 0.04 0.04 0.03 0.04 0.05 0.04 0.03 0.02 0.01 0.01 0.01 0.02 0.03 0.03 0.03 0.02 0.01 0.02 0.02 0.02 0.02 0.01 0.01 0.01 0.00 0.00 0.00
0.03 0.03 0.04 0.06 0.05 0.04 0.04 0.04 0.04 0.04 0.04 0.02 0.03 0.03 0.03 0.03 0.04 0.04 0.04 0.04 0.05 0.05 0.04 0.01 0.02 0.02 0.02 0.01 0.02 0.02 0.02 0.02 0.01 0.01 0.02 0.02 0.02 0.02 0.01 0.01 0.01 0.01 0.01
0.02 0.02 0.03 0.04 0.04 0.04 0.05 0.05 0.04 0.04 0.04 0.03 0.03 0.04 0.03 0.04 0.04 0.04 0.04 0.04 0.04 0.05 0.04 0.02 0.02 0.02 0.02 0.01 0.01 0.01 0.01 0.02 0.01 0.01 0.01 0.01 0.02 0.01 0.01 0.01 0.01 0.01 0.01
0.01 0.01 0.02 0.02 0.02 0.03 0.04 0.05 0.04 0.03 0.04 0.05 0.06 0.06 0.05 0.04 0.03 0.04 0.03 0.03 0.02 0.03 0.03 0.02 0.01 0.01 0.01 0.01 0.01 0.01 0.02 0.02 0.02 0.02 0.01 0.01 0.01 0.02 0.01 0.01 0.01 0.01 0.01
0.01 0.01 0.01 0.02 0.02 0.02 0.02 0.03 0.04 0.04 0.04 0.03 0.05 0.07 0.07 0.05 0.04 0.03 0.04 0.03 0.02 0.03 0.04 0.03 0.01 0.01 0.01 0.01 0.01 0.02 0.02 0.01 0.01 0.01 0.01 0.01 0.01 0.02 0.02 0.02 0.02 0.01 0.01
0.01 0.01 0.00 0.01 0.02 0.03 0.02 0.02 0.04 0.04 0.04 0.03 0.03 0.06 0.07 0.07 0.06 0.04 0.04 0.04 0.05 0.05 0.05 0.05 0.03 0.02 0.01 0.01 0.02 0.02 0.01 0.01 0.01 0.02 0.01 0.01 0.02 0.02 0.03 0.03 0.03 0.02 0.02
0.01 0.01 0.01 0.01 0.02 0.02 0.01 0.02 0.04 0.04 0.04 0.03 0.03 0.03 0.04 0.06 0.07 0.07 0.05 0.05 0.06 0.05 0.06 0.06 0.05 0.03 0.02 0.01 0.01 0.01 0.02 0.01 0.01 0.01 0.01 0.01 0.02 0.03 0.03 0.03 0.02 0.02 0.02
0.01 0.02 0.01 0.02 0.02 0.01 0.01 0.03 0.04 0.03 0.03 0.04 0.04 0.03 0.04 0.05 0.07 0.08 0.07 0.05 0.05 0.05 0.05 0.05 0.04 0.03 0.02 0.02 0.02 0.03 0.03 0.03 0.02 0.01 0.02 0.02 0.02 0.02 0.02 0.02 0.03 0.03 0.03
0.02 0.01 0.02 0.02 0.02 0.02 0.03 0.03 0.03 0.03 0.02 0.03 0.04 0.04 0.04 0.04 0.05 0.05 0.07 0.07 0.04 0.04 0.04 0.05 0.04 0.03 0.02 0.02 0.04 0.03 0.03 0.03 0.02 0.01 0.02 0.02 0.02 0.02 0.01 0.01 0.02 0.03 0.03
0.02 0.02 0.02 0.03 0.03 0.03 0.04 0.04 0.04 0.04 0.02 0.02 0.02 0.03 0.05 0.04 0.04 0.04 0.04 0.06 0.06 0.04 0.03 0.03 0.02 0.02 0.02 0.03 0.04 0.04 0.04 0.03 0.02 0.02 0.02 0.03 0.02 0.02 0.02 0.02 0.03 0.04 0.04
0.04 0.04 0.05 0.06 0.05 0.05 0.05 0.06 0.06 0.05 0.04 0.03 0.02 0.03 0.04 0.04 0.04 0.05 0.05 0.05 0.06 0.04 0.03 0.03 0.02 0.02 0.02 0.02 0.03 0.04 0.04 0.03 0.02 0.02 0.01 0.03 0.02 0.02 0.01 0.01 0.03 0.04 0.04
0.06 0.05 0.05 0.05 0.05 0.04 0.05 0.05 0.05 0.05 0.05 0.04 0.04 0.04 0.05 0.05 0.05 0.07 0.07 0.07 0.06 0.05 0.05 0.03 0.03 0.02 0.02 0.02 0.02 0.03 0.03 0.02 0.02 0.02 0.01 0.02 0.02 0.03 0.03 0.02 0.02 0.02 0.02
MSLP
1013.16 1013.39 1013.55 1013.67 1013.75 1013.82 1013.92 1014.05 1014.21 1014.40 1014.62 1014.85 1015.08 1015.32 1015.56 1015.82 1016.08 1016.35 1016.62 1016.87 1017.10 1017.30 1017.48 1017.65 1017.83 1018.01 1018.22 1018.44 1018.67 1018.88 1019.07 1019.23 1019.34 1019.43 1019.49 1019.54 1019.61 1019.69 1019.78 1019.87 1019.94 1019.99 1020.00
1013.17 1013.42 1013.62 1013.79 1013.95 1014.11 1014.28 1014.47 1014.69 1014.92 1015.16 1015.40 1015.63 1015.86 1016.09 1016.31 1016.53 1016.75 1016.96 1017.15 1017.33 1017.50 1017.67 1017.83 1018.01 1018.20 1018.41 1018.63 1018.84 1019.04 1019.20 1019.33 1019.41 1019.48 1019.52 1019.57 1019.63 1019.70 1019.79 1019.87 1019.94 1019.98 1019.99
1013.13 1013.37 1013.61 1013.84 1014.08 1014.33 1014.59 1014.87 1015.16 1015.45 1015.74 1016.01 1016.27 1016.50 1016.71 1016.90 1017.07 1017.22 1017.36 1017.49 1017.60 1017.72 1017.84 1017.99 1018.15 1018.34 1018.54 1018.75 1018.95 1019.12 1019.26 1019.36 1019.41 1019.45 1019.47 1019.50 1019.54 1019.60 1019.68 1019.76 1019.82 1019.86 1019.87
1013.08 1013.31 1013.57 1013.86 1014.17 1014.50 1014.86 1015.23 1015.59 1015.96 1016.30 1016.62 1016.90 1017.15 1017.35 1017.52 1017.65 1017.74 1017.81 1017.86 1017.90 1017.95 1018.02 1018.12 1018.26 1018.43 1018.62 1018.81 1018.99 1019.14 1019.25 1019.31 1019.34 1019.34 1019.33 1019.33 1019.35 1019.39 1019.45 1019.52 1019.57 1019.62 1019.64
1013.06 1013.29 1013.56 1013.89 1014.26 1014.66 1015.09 1015.53 1015.96 1016.38 1016.78 1017.14 1017.46 1017.73 1017.95 1018.11 1018.21 1018.26 1018.27 1018.24 1018.21 1018.19 1018.20 1018.24 1018.34 1018.47 1018.63 1018.80 1018.96 1019.08 1019.16 1019.20 1019.19 1019.16 1019.13 1019.10 1019.09 1019.10 1019.13 1019.18 1019.23 1019.27 1019.31
1013.09 1013.33 1013.63 1013.98 1014.39 1014.83 1015.30 1015.77 1016.24 1016.70 1017.13 1017.52 1017.88 1018.18 1018.42 1018.60 1018.70 1018.72 1018.69 1018.61 1018.52 1018.43 1018.36 1018.35 1018.39 1018.48 1018.60 1018.73 1018.86 1018.96 1019.01 1019.02 1019.00 1018.94 1018.88 1018.82 1018.78 1018.77 1018.77 1018.79 1018.83 1018.87 1018.91
1013.20 1013.45 1013.77 1014.14 1014.57 1015.03 1015.50 1015.97 1016.44 1016.89 1017.32 1017.74 1018.12 1018.46 1018.73 1018.94 1019.05 1019.08 1019.03 1018.92 1018.78 1018.63 1018.51 1018.43 1018.40 1018.44 1018.51 1018.60 1018.69 1018.77 1018.80 1018.80 1018.75 1018.69 1018.61 1018.53 1018.47 1018.43 1018.41 1018.41 1018.42 1018.45 1018.48
1013.35 1013.63 1013.97 1014.37 1014.80 1015.24 1015.68 1016.12 1016.54 1016.96 1017.38 1017.79 1018.18 1018.55 1018.86 1019.11 1019.26 1019.32 1019.28 1019.16 1018.98 1018.79 1018.61 1018.47 1018.38 1018.35 1018.36 1018.41 1018.46 1018.50 1018.52 1018.51 1018.46 1018.39 1018.32 1018.24 1018.18 1018.13 1018.09 1018.07 1018.05 1018.05 1018.05
1013.50 1013.82 1014.20 1014.61 1015.03 1015.45 1015.84 1016.22 1016.58 1016.94 1017.31 1017.70 1018.09 1018.48 1018.83 1019.12 1019.32 1019.42 1019.40 1019.29 1019.11 1018.88 1018.66 1018.46 1018.31 1018.21 1018.17 1018.16 1018.17 1018.18 1018.17 1018.15 1018.11 1018.05 1018.00 1017.94 1017.89 1017.85 1017.81 1017.78 1017.74 1017.69 1017.65
1013.59 1013.96 1014.38 1014.81 1015.22 1015.61 1015.96 1016.27 1016.56 1016.86 1017.17 1017.52 1017.90 1018.30 1018.68 1019.02 1019.27 1019.41 1019.43 1019.33 1019.15 1018.91 1018.65 1018.41 1018.20 1018.04 1017.94 1017.87 1017.83 1017.80 1017.77 1017.73 1017.69 1017.66 1017.63 1017.61 1017.59 1017.58 1017.56 1017.52 1017.47 1017.38 1017.28
1013.56 1013.99 1014.45 1014.90 1015.33 1015.70 1016.01 1016.27 1016.50 1016.73 1016.99 1017.30 1017.67 1018.07 1018.47 1018.84 1019.13 1019.31 1019.37 1019.30 1019.13 1018.88 1018.61 1018.33 1018.07 1017.86 1017.70 1017.57 1017.47 1017.39 1017.32 1017.26 1017.22 1017.20 1017.20 1017.21 1017.24 1017.27 1017.29 1017.27 1017.21 1017.10 1016.94
1013.40 1013.88 1014.37 1014.86 1015.30 1015.67 1015.97 1016.19 1016.39 1016.58 1016.80 1017.08 1017.43 1017.83 1018.24 1018.63 1018.95 1019.16 1019.25 1019.21 1019.06 1018.82 1018.54 1018.25 1017.96 1017.71 1017.49 1017.30 1017.14 1017.00 1016.88 1016.78 1016.72 1016.69 1016.70 1016.75 1016.83 1016.91 1016.98 1016.99 1016.95 1016.82 1016.61
1013.11 1013.62 1014.15 1014.67 1015.14 1015.53 1015.83 1016.05 1016.23 1016.41 1016.62 1016.89 1017.22 1017.61 1018.02 1018.42 1018.75 1018.98 1019.10 1019.08 1018.96 1018.75 1018.48 1018.18 1017.89 1017.61 1017.35 1017.11 1016.88 1016.67 1016.49 1016.33 1016.22 1016.17 1016.17 1016.24 1016.35 1016.48 1016.59 1016.66 1016.64 1016.52 1016.30
1012.72 1013.25 1013.81 1014.36 1014.86 1015.27 1015.60 1015.85 1016.05 1016.23 1016.44 1016.70 1017.03 1017.41 1017.81 1018.20 1018.54 1018.78 1018.91 1018.93 1018.83 1018.66 1018.42 1018.15 1017.87 1017.59 1017.31 1017.03 1016.75 1016.47 1016.20 1015.97 1015.79 1015.68 1015.65 1015.71 1015.83 1015.99 1016.15 1016.26 1016.29 1016.21 1015.99
1012.29 1012.83 1013.40 1013.97 1014.50 1014.95 1015.32 1015.60 1015.83 1016.04 1016.26 1016.53 1016.84 1017.21 1017.59 1017.97 1018.30 1018.54 1018.69 1018.73 1018.68 1018.55 1018.37 1018.15 1017.91 1017.65 1017.37 1017.07 1016.75 1016.41 1016.07 1015.75 1015.48 1015.29 1015.20 1015.21 1015.31 1015.48 1015.67 1015.83 1015.91 1015.87 1015.69
1011.87 1012.40 1012.98 1013.56 1014.11 1014.59 1015.00 1015.32 1015.59 1015.82 1016.06 1016.33 1016.64 1016.98 1017.34 1017.70 1018.01 1018.25 1018.41 1018.49 1018.48 1018.42 1018.30 1018.15 1017.98 1017.77 1017.52 1017.23 1016.89 1016.51 1016.11 1015.70 1015.34 1015.05 1014.87 1014.81 1014.86 1015.00 1015.19 1015.37 1015.50 1015.52 1015.41
1011.49 1012.01 1012.58 1013.17 1013.73 1014.23 1014.66 1015.02 1015.31 1015.57 1015.82 1016.09 1016.38 1016.70 1017.04 1017.37 1017.66 1017.90 1018.07 1018.18 1018.23 1018.23 1018.20 1018.14 1018.04 1017.91 1017.73 1017.47 1017.15 1016.75 1016.30 1015.83 1015.38 1015.00 1014.72 1014.56 1014.52 1014.60 1014.76 1014.94 1015.10 1015.18 1015.14
1011.14 1011.66 1012.22 1012.81 1013.37 1013.88 1014.33 1014.70 1015.01 1015.28 1015.53 1015.79 1016.06 1016.36 1016.67 1016.98 1017.25 1017.49 1017.69 1017.83 1017.93 1018.01 1018.05 1018.08 1018.08 1018.03 1017.92 1017.73 1017.45 1017.07 1016.61 1016.11 1015.60 1015.13 1014.74 1014.47 1014.34 1014.33 1014.42 1014.57 1014.73 1014.84 1014.87
1010.78 1011.31 1011.88 1012.46 1013.02 1013.54 1013.99 1014.36 1014.68 1014.94 1015.19 1015.43 1015.69 1015.96 1016.25 1016.54 1016.82 1017.06 1017.28 1017.46 1017.61 1017.75 1017.87 1017.98 1018.06 1018.11 1018.08 1017.97 1017.75 1017.42 1016.98 1016.47 1015.93 1015.40 1014.93 1014.56 1014.31 1014.19 1014.19 1014.27 1014.40 1014.52 1014.60
1010.37 1010.92 1011.51 1012.10 1012.67 1013.19 1013.64 1014.01 1014.31 1014.57 1014.80 1015.04 1015.28 1015.54 1015.82 1016.11 1016.39 1016.66 1016.90 1017.11 1017.31 1017.50 1017.68 1017.85 1018.00 1018.12 1018.17 1018.14 1017.99 1017.73 1017.35 1016.88 1016.34 1015.78 1015.25 1014.79 1014.44 1014.20 1014.08 1014.07 1014.12 1014.22 1014.31
1009.86 1010.47 1011.09 1011.71 1012.30 1012.83 1013.28 1013.64 1013.94 1014.19 1014.41 1014.64 1014.88 1015.14 1015.43 1015.73 1016.04 1016.33 1016.60 1016.85 1017.08 1017.30 1017.52 1017.73 1017.92 1018.08 1018.19 1018.23 1018.16 1017.98 1017.67 1017.26 1016.76 1016.20 1015.65 1015.13 1014.68 1014.33 1014.09 1013.96 1013.92 1013.95 1014.02
1009.28 1009.95 1010.64 1011.30 1011.92 1012.47 1012.92 1013.29 1013.59 1013.83 1014.05 1014.28 1014.53 1014.81 1015.12 1015.46 1015.80 1016.13 1016.43 1016.71 1016.97 1017.20 1017.43 1017.64 1017.84 1018.02 1018.16 1018.24 1018.24 1018.13 1017.91 1017.57 1017.13 1016.62 1016.07 1015.52 1015.00 1014.56 1014.20 1013.95 1013.81 1013.75 1013.76
1008.68 1009.43 1010.19 1010.91 1011.57 1012.14 1012.62 1013.00 1013.29 1013.54 1013.77 1014.01 1014.28 1014.58 1014.93 1015.31 1015.70 1016.07 1016.41 1016.72 1016.99 1017.22 1017.42 1017.61 1017.79 1017.95 1018.09 1018.18 1018.22 1018.18 1018.03 1017.78 1017.42 1016.97 1016.46 1015.91 1015.36 1014.85 1014.41 1014.05 1013.79 1013.63 1013.57
1008.17 1009.00 1009.82 1010.61 1011.31 1011.92 1012.41 1012.80 1013.11 1013.36 1013.60 1013.85 1014.15 1014.49 1014.88 1015.31 1015.74 1016.15 1016.53 1016.85 1017.12 1017.33 1017.49 1017.63 1017.76 1017.88 1017.98 1018.07 1018.12 1018.12 1018.04 1017.87 1017.60 1017.23 1016.77 1016.26 1015.72 1015.18 1014.68 1014.24 1013.89 1013.63 1013.48
1007.86 1008.76 1009.65 1010.48 1011.22 1011.85 1012.35 1012.75 1013.06 1013.32 1013.57 1013.84 1014.15 1014.52 1014.95 1015.40 1015.87 1016.32 1016.71 1017.04 1017.30 1017.48 1017.60 1017.68 1017.74 1017.80 1017.86 1017.91 1017.96 1017.97 1017.94 1017.84 1017.65 1017.36 1016.99 1016.54 1016.03 1015.50 1014.98 1014.50 1014.08 1013.76 1013.53
1007.87 1008.81 1009.73 1010.58 1011.34 1011.97 1012.48 1012.87 1013.18 1013.43 1013.68 1013.95 1014.27 1014.65 1015.08 1015.56 1016.04 1016.49 1016.89 1017.22 1017.46 1017.61 1017.68 1017.71 1017.71 1017.70 1017.69 1017.71 1017.73 1017.75 1017.75 1017.69 1017.57 1017.37 1017.08 1016.71 1016.27 1015.79 1015.29 1014.81 1014.37 1013.99 1013.70
Thickness
5756 5755 5754 5753 5753 5752 5751 5750 5749 5747 5746 5745 5744 5743 5742 5741 5740 5739 5739 5739 5738 5738 5737 5736 5735 5735 5734 5733 5732 5731 5730 5729 5727 5726 5725 5723 5722 5721 5719 5718 5716 5715 5714
5755 5754 5752 5751 5751 5751 5750 5748 5747 5746 5745 5744 5742 5742 5741 5740 5739 5738 5738 5737 5736 5736 5735 5735 5734 5734 5732 5731 5730 5729 5728 5726 5726 5725 5723 5722 5721 5719 5718 5716 5714 5713 5712
5754 5753 5751 5750 5749 5749 5748 5747 5745 5745 5744 5742 5740 5740 5739 5738 5737 5736 5736 5735 5734 5734 5734 5733 5733 5732 5731 5729 5728 5727 5726 5724 5724 5723 5722 5721 5719 5717 5716 5714 5712 5711 5710
5752 5751 5749 5748 5748 5747 5746 5744 5743 5741 5740 5738 5737 5737 5737 5737 5736 5735 5734 5733 5733 5732 5731 5731 5730 5730 5729 5728 5726 5724 5723 5722 5721 5721 5720 5718 5717 5715 5713 5711 5710 5709 5708
5750 5749 5748 5747 5746 5745 5744 5743 5740 5739 5737 5735 5735 5735 5735 5734 5734 5734 5732 5732 5731 5730 5729 5729 5728 5727 5727 5725 5724 5722 5721 5720 5719 5718 5717 5716 5715 5713 5711 5710 5708 5707 5705
5748 5747 5746 5745 5744 5742 5741 5740 5738 5736 5735 5734 5734 5732 5732 5732 5732 5731 5731 5730 5730 5729 5728 5727 5726 5725 5724 5723 5722 5721 5719 5718 5717 5716 5715 5713 5712 5710 5709 5707 5706 5704 5703
5745 5744 5743 5742 5741 5739 5738 5737 5735 5733 5731 5731 5728 5725 5726 5728 5728 5729 5728 5727 5727 5726 5726 5725 5724 5722 5722 5721 5720 5719 5718 5717 5715 5714 5713 5711 5709 5708 5706 5705 5703 5702 5701
5743 5742 5741 5739 5738 5737 5735 5734 5732 5729 5728 5728 5723 5718 5714 5717 5722 5725 5725 5724 5724 5724 5723 5722 5721 5720 5719 5719 5718 5717 5716 5715 5714 5713 5711 5709 5707 5706 5705 5703 5701 5700 5699
5741 5740 5738 5737 5736 5735 5732 5731 5730 5727 5723 5724 5724 5718 5710 5706 5711 5717 5719 5720 5720 5719 5719 5719 5719 5718 5717 5716 5716 5715 5714 5713 5712 5711 5709 5708 5706 5704 5703 5701 5700 5698 5697
5737 5737 5736 5734 5733 5732 5730 5729 5728 5726 5723 5719 5720 5720 5717 5714 5707 5706 5711 5714 5715 5715 5716 5716 5716 5715 5714 5713 5713 5712 5712 5711 5710 5708 5707 5706 5704 5703 5701 5699 5698 5696 5695
5733 5733 5732 5730 5729 5728 5727 5726 5725 5724 5722 5719 5717 5716 5714 5712 5710 5704 5702 5706 5709 5711 5713 5713 5713 5712 5712 5711 5711 5710 5709 5708 5707 5706 5705 5703 5702 5700 5698 5697 5696 5694 5693
5728 5728 5728 5726 5725 5725 5724 5724 5723 5722 5720 5719 5717 5715 5712 5709 5706 5704 5700 5700 5701 5705 5708 5709 5709 5709 5709 5709 5708 5707 5706 5705 5705 5704 5702 5701 5699 5698 5696 5695 5694 5693 5692
5723 5724 5724 5723 5722 5722 5722 5721 5720 5719 5718 5716 5715 5713 5712 5710 5709 5706 5701 5698 5698 5700 5703 5705 5706 5707 5706 5706 5704 5704 5703 5702 5701 5701 5699 5698 5696 5695 5694 5693 5692 5691 5689
5721 5722 5721 5721 5720 5719 5719 5718 5716 5715 5714 5713 5713 5711 5710 5709 5708 5706 5702 5698 5693 5693 5695 5698 5702 5703 5703 5702 5701 5700 5699 5699 5698 5697 5696 5695 5693 5692 5691 5690 5689 5688 5687
5719 5719 5718 5717 5717 5716 5715 5714 5712 5711 5710 5709 5709 5709 5707 5707 5706 5705 5703 5700 5694 5688 5688 5693 5696 5699 5699 5699 5698 5696 5696 5695 5695 5694 5693 5692 5691 5690 5688 5687 5686 5685 5683
5716 5715 5715 5715 5714 5713 5711 5709 5708 5707 5706 5706 5705 5705 5704 5703 5702 5702 5700 5698 5695 5690 5686 5690 5692 5694 5695 5695 5694 5693 5692 5692 5691 5690 5689 5688 5687 5686 5685 5684 5682 5681 5680
5713 5712 5711 5711 5710 5708 5706 5705 5703 5703 5702 5702 5702 5700 5699 5699 5698 5697 5696 5694 5692 5689 5685 5687 5688 5690 5690 5689 5689 5689 5688 5688 5687 5687 5686 5685 5684 5683 5682 5680 5679 5677 5676
5709 5709 5708 5706 5705 5703 5702 5700 5699 5699 5698 5697 5696 5696 5695 5695 5694 5693 5691 5689 5687 5686 5683 5681 5682 5683 5684 5685 5685 5684 5684 5683 5683 5682 5682 5681 5680 5679 5678 5677 5675 5673 5672
5705 5705 5703 5702 5700 5699 5697 5696 5695 5695 5694 5693 5693 5691 5691 5690 5688 5687 5686 5684 5682 5682 5680 5677 5676 5677 5678 5679 5678 5679 5679 5678 5678 5678 5677 5676 5676 5675 5674 5673 5671 5669 5668
5701 5700 5699 5698 5696 5695 5694 5693 5692 5690 5690 5689 5689 5688 5687 5686 5684 5683 5681 5679 5678 5675 5673 5671 5670 5671 5671 5673 5672 5670 5670 5672 5672 5673 5672 5672 5671 5670 5670 5668 5667 5665 5664
5697 5696 5694 5693 5692 5691 5690 5688 5687 5687 5685 5684 5684 5684 5684 5683 5682 5680 5678 5675 5673 5670 5667 5665 5664 5664 5664 5664 5664 5664 5663 5664 5665 5667 5666 5666 5666 5665 5664 5663 5663 5662 5661
5691 5690 5689 5688 5687 5686 5686 5684 5683 5681 5680 5679 5678 5678 5678 5677 5677 5675 5673 5672 5670 5667 5664 5661 5659 5659 5659 5660 5660 5659 5657 5655 5656 5661 5659 5660 5660 5659 5660 5659 5659 5658 5656
5685 5684 5683 5682 5681 5680 5680 5678 5677 5675 5674 5673 5672 5671 5672 5672 5670 5668 5667 5666 5665 5665 5663 5660 5657 5657 5657 5657 5656 5654 5653 5652 5652 5655 5653 5653 5654 5654 5656 5656 5655 5654 5652
5678 5678 5677 5676 5674 5674 5673 5672 5670 5669 5667 5667 5666 5666 5665 5663 5663 5662 5660 5659 5658 5658 5658 5657 5656 5656 5656 5655 5654 5652 5651 5648 5648 5649 5648 5645 5647 5648 5651 5651 5651 5650 5648
5672 5671 5671 5670 5668 5667 5666 5665 5664 5662 5660 5660 5660 5659 5658 5657 5657 5656 5654 5653 5653 5653 5654 5653 5652 5652 5652 5651 5649 5646 5643 5640 5639 5641 5642 5641 5641 5642 5643 5645 5646 5645 5644
5665 5665 5664 5663 5662 5660 5660 5659 5657 5654 5652 5652 5652 5652 5651 5651 5650 5649 5648 5646 5645 5646 5646 5646 5646 5646 5646 5646 5645 5642 5640 5636 5634 5634 5637 5635 5634 5633 5634 5638 5639 5639 5638